Regional Weather Roundup
Issued by NWS State College, PA

Home | Current Version | Previous Version | Text Only | Print | Product List | Glossary On
Versions: 1 2 3 4 5 6 7 8 9 10 11 12 13 14 15 16 17 18 19 20 21 22 23 24 25 26 27 28 29 30 31 32 33 34 35 36 37 38 39 40 41 42 43 44 45 46 47 48 49 50
000
ASUS41 KCTP 310703
RWRCTP

REGIONAL WEATHER ROUNDUP
NATIONAL WEATHER SERVICE STATE COLLEGE PA
300 AM EDT SAT JUL 31 2021

Note: "fair" indicates few or no clouds below 12,000 feet with no
significant weather and/or obstructions to visibility.

* = STATION THAT DOES NOT REPORT PRECIPITATION /E.G. RAIN...SNOW...ETC/
    THUNDER OR FOG.

PAZ002>004-007>009-013>016-020>023-029>032-310800-
WESTERN PENNSYLVANIA

CITY           SKY/WX    TMP DP  RH WIND       PRES   REMARKS
ERIE           CLEAR     64  52  64 VRB5      30.04F
MEADVILLE      PTCLDY    55  52  89 CALM      30.06F
FRANKLIN       PTCLDY    54  53  97 NW3       30.07F
NEW CASTLE     FAIR      53  52  96 CALM      30.07F
BEAVER COUNTY  NOT AVBL
BUTLER         MOCLDY    53  52  96 CALM      30.07F
PITTSBURGH INT MOCLDY    59  53  80 CALM      30.06F
PITTSBURGH     MOCLDY    61  52  72 CALM      30.06F
INDIANA*       CLEAR     54  54 100 CALM      30.09F
LATROBE        MOCLDY    57  55  94 CALM      30.06F
WASHINGTON CO* MOCLDY    57  56  96 CALM      30.10F
$$

PAZ004>006-010>012-017>019-024>028-033>037-041-042-045-046-049>053-310800-
CENTRAL PENNSYLVANIA

CITY           SKY/WX    TMP DP  RH WIND       PRES   REMARKS
BRADFORD       CLEAR     47  43  86 CALM      30.06S
ST MARYS       CLOUDY    48  48 100 CALM      30.08F
DUBOIS         PTCLDY    51  48  89 CALM      30.04F
CLEARFIELD     PTCLDY    50  49  96 CALM      30.06S
JOHNSTOWN      PTCLDY    57  49  74 CALM      30.07F
SOMERSET       FAIR      54  50  87 CALM      30.08F
ALTOONA        PTCLDY    55  49  80 CALM      30.05F
STATE COLLEGE  NOT AVBL
REEDSVILLE     FAIR      57  52  82 CALM      30.03
WELLSBORO      CLOUDY    48  48 100 W3        30.05R
WILLIAMSPORT   CLEAR     55  51  86 NW5       30.01S
SELINSGROVE    CLEAR     54  52  93 CALM      30.02F
FT INDIANTOWN  CLEAR     57  51  80 CALM      30.02S
CAPITAL CITY   CLEAR     63  51  65 CALM      30.02S
HARRISBURG     CLEAR     66  49  54 N3        30.01S
YORK           PTCLDY    56  53  90 CALM      30.01F
$$

PAZ038>040-043-044-047-048-054-055-060>062-067>071-310800-
EASTERN PENNSYLVANIA

CITY           SKY/WX    TMP DP  RH WIND       PRES   REMARKS
TOWANDA        SUNNY     52  52 100 CALM      30.05F
SCRANTON       CLEAR     53  50  89 CALM      30.00F
MOUNT POCONO   CLEAR     52  47  83 NW9       29.99F
HAZLETON       NOT AVBL
LEHIGHTON      NOT AVBL
ALLENTOWN      CLEAR     56  48  74 SW5       30.00S
QN CITY/ALNTWN FAIR      59  50  72 CALM      30.02R
QUAKERTOWN*    NOT AVBL
PERKASIE*      SUNNY     54  54 100 CALM      30.02R
DOYLESTOWN     CLEAR     58  49  72 CALM      29.99F
READING        CLEAR     59  52  77 NW3       30.00S
LANCASTER      CLEAR     61  52  72 CALM      30.01S
COATESVILLE    SUNNY     63  52  67 N5        30.03R
WEST CHESTER   SUNNY     63  50  63 CALM      30.01S
POTTSTOWN      CLEAR     56  51  84 CALM      30.02S
BLUE BELL      CLEAR     56  53  86 CALM      30.01S
NORTH PHILA    CLEAR     62  49  62 N5        30.01S
PHILADELPHIA   PTCLDY    65  49  56 N7        30.00S
$$



USA.gov is the U.S. government's official web portal to all federal, state and local government web resources and services.